User: anonymous   Login
Location: Nebula Knoll Observatory
(43.6666°N, 71.0000°W)
Time: 05:57:36
(UTC-04:00)
Language:

SeaSat 1 - Orbit

View from above orbital plane
View from above orbital plane
View from above satellite
View from above satellite

Ground track
Ground track

The orbit data is extracted from the following two-line orbital elements,

1 10967U 78064A   15179.88511440  .00000014  00000-0  44674-4 0  9996
2 10967 107.9941 237.1193 0001201 287.6175 072.4838 14.43406083942800
Epoch (UTC): 28 June 2015 21:14:33
Eccentricity: 0.0001201
inclination: 107.9941°
perigee height: 746 km
apogee height: 748 km
right ascension of ascending node: 237.1193°
argument of perigee: 287.6175°
revolutions per day: 14.43406083
mean anomaly at epoch: 72.4838°
orbit number at epoch: 94280

The dashed part of the orbit path shows where the satellite is in the earth's shadow,  

DLR